Location: Unspecified
(0.0000°N, 0.0000°E)
Time: 16:32:14
(UTC+00:00)

deb Delta 104 - Visible Passes

Search period start: 14 January 2026 00:00
Search period end: 24 January 2026 00:00
Orbit: 1376 x 1469 km, 101.9° (Epoch: 13 January)

Date Brightness Start Highest point End Pass type
(mag) Time Alt. Az. Time Alt. Az. Time Alt. Az.
14 Jan ? 04:16:02 10° ENE 04:20:52 17° ESE 04:25:38 10° SE visible
14 Jan ? 18:27:33 10° S 18:34:55 40° WSW 18:42:24 10° NW visible
15 Jan ? 04:58:20 10° NE 05:06:00 41° ESE 05:13:33 10° S visible
15 Jan ? 19:15:34 10° SW 19:20:04 16° WSW 19:24:36 10° WNW visible
17 Jan ? 04:37:54 10° NE 04:44:36 27° ESE 04:51:11 10° SSE visible
17 Jan ? 18:52:22 10° SSW 18:58:40 26° WSW 19:05:05 10° NW visible
18 Jan ? 05:21:35 10° NNE 05:29:47 64° ESE 05:37:50 10° S visible
19 Jan ? 04:18:14 10° ENE 04:23:12 17° ESE 04:28:07 10° SE visible
19 Jan ? 18:29:55 10° S 18:37:15 39° WSW 18:44:43 10° NW visible
20 Jan ? 05:00:40 10° NE 05:08:21 43° ESE 05:15:55 10° S visible
20 Jan ? 19:18:05 10° SW 19:22:24 15° WSW 19:26:46 10° WNW visible
21 Jan ? 05:45:14 10° NNE 05:53:34 86° WNW 06:01:45 10° SSW visible
22 Jan ? 04:40:11 10° NE 04:46:57 28° ESE 04:53:35 10° SSE visible
22 Jan ? 18:54:46 10° SSW 19:01:00 25° WSW 19:07:20 10° NW visible
23 Jan ? 05:23:56 10° NNE 05:32:08 66° ESE 05:40:10 10° S visible
